Flag for Germany Weather past 2 weeks in Dannenberg, Lower Saxony, Germany

Now
36 °F

Low clouds.


Feels Like: 36 °F
Forecast: 36 / 42 °F
Wind: 2 mph from Southwest

Location: Marnitz

Current Time: Jan 26, 2015 at 1:51:22 AM

Latest Report: Jan 26, 2015 at 1:00 AM


Visibility: 3 mi

Pressure: 30.25 "Hg

Humidity: 100%

Dew point: 36 °F

Location of DannenbergLocation

Historic Weather in Dannenberg — Graph

°F

Dannenberg temperature yesterday

Maximum temperature yesterday: 36 °F (at 7:00 PM)
Minimum temperature yesterday: 30 °F (at 6:00 AM)
Average temperature yesterday: 33 °F

Past Weeks' High & Low Weather Summary

 TemperatureHumidityPressure
High50 °F (Jan 13, 1:00 PM)100% (Jan 20, 10:00 PM)30.32 "Hg (Jan 20, 10:00 PM)
Low25 °F (Jan 22, 12:00 AM)63% (Jan 16, 2:00 PM)29.44 "Hg (Jan 15, 6:00 PM)
Average35 °F88%29.92 "Hg
* Reported Jan 11 1:00 AM — Jan 26 1:00 AM, Dannenberg, Weather by CustomWeather, © 2014

Note: Actual official high and low records may vary slightly from our data, if they occured in-between our weather recording intervals... More about our weather records

Advertising

Dannenberg weather history for previous 24 hours

 ConditionsComfort  
Time TempWeatherWind HumidityBarometerVisibility
1:00 AM
Jan 26
36 °FLow clouds.2 mph100%30.25 "Hg3 mi
12:00 AM36 °FDrizzle. Overcast.1 mph100%30.27 "Hg1 mi
11:00 PM
Jan 25
36 °FDuststorm.1 mph100%30.27 "Hg1 mi
10:00 PM35 °FFog.1 mph100%30.27 "Hg1 mi
9:00 PM35 °FFog.2 mph99%30.29 "Hg2 mi
8:00 PM35 °FLow clouds.2 mph97%30.28 "Hg6 mi
7:00 PM36 °FFog.2 mph97%30.28 "Hg4 mi
6:00 PM35 °FFog.2 mph96%30.27 "Hg4 mi
5:00 PM35 °FFog.2 mph98%30.27 "Hg3 mi
4:00 PM35 °FFog.2 mph97%30.26 "Hg3 mi
3:00 PM35 °FFog.3 mph97%30.24 "Hg4 mi
2:00 PM34 °FFog.5 mph98%30.24 "Hg2 mi
1:00 PM34 °FFog.3 mph98%30.25 "Hg2 mi
12:00 PM34 °FFog.3 mph97%30.25 "Hg3 mi
11:00 AM33 °FLow clouds.3 mph95%30.25 "Hg5 mi
10:00 AM33 °FFog.5 mph99%30.25 "Hg3 mi
9:00 AM32 °FFog.5 mph98%30.24 "Hg2 mi
8:00 AM32 °FFog.5 mph98%30.21 "Hg3 mi
7:00 AM31 °FFog.6 mph96%30.19 "Hg4 mi
6:00 AM30 °FClear.5 mph96%30.19 "Hg5 mi
4:00 AM31 °FFog.5 mph96%30.17 "Hg4 mi
3:00 AM31 °FPassing clouds.5 mph95%30.16 "Hg7 mi
2:00 AM32 °FOvercast.5 mph95%30.15 "Hg6 mi
1:00 AM32 °FPassing clouds.5 mph95%30.14 "Hg5 mi
Weather by CustomWeather, © 2014

See weather overviewHow to use our weather pages